Theta_e
317 317 317 317 318 318 318 318 318 318 318 318 319 319 320 320 320 320 320 321 322 322 323 323 325 325 325 326 326 326 325 328 320 317 313 318 328 337 339 340 340 335 330 319 315 313 310 310 310 312 313 312 312 313 312 314 312 312 306 301 299 300 298 302 301 303 305 303 304 304 304 304 303 306 306 307 306 306 306 306 306 307 307 308 308 309 310 311
316 316 316 316 317 317 317 317 317 318 317 318 318 319 319 319 320 320 320 321 322 322 323 324 324 325 325 326 326 326 325 326 317 314 314 329 338 340 341 336 337 336 329 315 312 310 309 308 309 311 309 308 314 308 313 310 314 307 302 300 299 300 301 304 305 305 304 303 305 305 304 304 304 304 306 303 304 305 304 306 306 304 307 308 308 309 309 310
315 315 315 315 316 317 317 317 317 317 317 317 317 318 318 318 320 321 321 321 321 322 323 323 324 325 325 326 325 325 324 324 314 310 318 332 339 339 339 337 335 332 318 314 312 312 310 310 310 309 308 306 308 307 310 308 309 305 305 300 301 303 302 304 305 304 306 305 304 304 304 303 305 304 307 303 303 304 303 304 304 304 304 306 306 308 308 309
314 315 315 315 315 316 316 316 317 317 317 317 318 318 318 319 319 320 321 321 321 322 323 323 324 324 325 324 325 325 328 322 307 311 322 333 337 340 336 333 328 325 318 314 314 314 312 312 310 310 307 306 306 307 306 307 308 308 304 301 301 303 302 303 304 305 305 305 304 303 304 302 305 305 305 304 302 304 303 302 301 302 304 305 306 307 308 308
315 316 316 316 316 317 316 316 316 316 317 317 318 318 317 319 319 319 320 321 321 322 322 323 324 324 324 325 323 325 321 305 307 316 325 335 339 339 334 327 327 320 317 314 314 313 313 310 309 308 307 304 305 304 304 306 307 305 303 303 303 302 303 304 305 305 305 305 303 303 301 303 306 305 304 304 300 302 302 302 303 304 304 304 304 306 307 307
316 316 316 316 316 317 317 316 317 317 317 317 317 318 318 319 319 320 320 321 322 322 322 323 323 324 324 324 324 325 316 295 309 318 330 332 337 336 331 327 325 318 315 313 312 311 310 309 308 306 304 303 302 301 304 306 307 302 303 304 304 305 303 305 305 305 304 303 303 302 304 305 303 303 305 304 302 303 304 304 304 304 304 305 306 306 306 306
317 317 316 316 316 317 317 317 317 317 317 317 317 318 318 319 319 320 320 321 321 322 322 323 323 324 323 321 327 318 309 306 310 325 328 332 333 332 327 325 325 315 314 312 311 310 309 307 306 305 304 303 303 302 304 304 307 303 301 303 303 305 303 305 305 304 304 303 302 305 304 302 303 301 303 302 302 304 304 304 304 304 305 305 304 305 305 305
316 317 317 317 315 316 316 316 317 317 317 317 317 318 318 319 320 320 320 321 321 322 322 322 323 322 321 327 320 314 308 305 317 325 324 329 325 319 321 316 315 316 313 311 311 309 308 306 304 305 304 302 303 304 304 304 305 303 303 303 304 303 304 305 305 304 304 304 305 303 301 302 303 303 302 301 302 303 303 304 304 304 304 304 304 304 305 305
316 317 317 316 315 316 316 316 316 317 317 317 317 317 318 319 319 319 320 321 321 321 322 322 322 320 321 321 315 304 303 317 321 328 327 326 318 314 319 315 315 314 312 312 312 311 308 306 305 306 302 303 305 303 303 302 302 303 303 303 303 303 304 305 304 304 304 304 304 301 301 304 304 304 301 301 301 303 303 303 303 304 303 303 303 303 304 304
316 317 317 317 317 317 317 317 317 317 317 317 317 317 318 319 319 320 320 321 321 322 321 322 321 320 319 318 312 300 312 316 323 327 322 320 316 315 314 318 315 314 312 311 311 310 308 309 307 308 308 305 305 303 304 303 301 303 303 303 303 304 304 305 303 305 305 304 303 301 302 303 302 301 298 299 302 303 303 302 303 303 302 302 303 303 304 304
317 318 317 318 318 318 318 319 318 317 318 317 317 318 318 318 319 319 320 321 321 321 322 322 321 319 322 313 306 301 321 324 327 325 318 316 316 314 315 315 315 314 313 312 310 311 311 309 310 309 306 304 305 303 304 302 304 303 302 303 303 304 304 305 304 304 304 302 304 302 301 302 301 299 300 299 302 303 302 302 302 302 303 302 302 303 304 304
317 318 318 318 319 319 319 319 317 318 317 317 317 317 318 319 319 320 320 321 321 321 321 321 320 319 314 311 306 307 312 324 327 322 317 315 316 316 315 313 313 316 313 311 312 314 313 312 310 306 302 307 302 304 303 304 303 302 303 299 303 304 302 305 303 303 302 301 301 303 300 298 298 299 300 301 301 303 303 302 301 301 302 302 302 302 302 303
317 318 318 319 320 320 321 319 318 317 318 317 317 317 318 319 319 320 321 321 321 321 320 320 317 323 316 305 309 311 319 324 320 318 317 318 315 314 313 314 314 312 313 312 311 313 312 311 310 306 307 306 305 301 303 305 303 303 302 301 300 302 302 302 302 302 301 301 302 302 294 299 299 301 301 301 302 302 302 302 301 301 301 301 302 302 302 302
318 318 319 320 321 321 321 320 318 318 317 317 317 317 318 318 320 321 321 320 321 320 321 320 321 319 313 306 309 315 320 323 317 316 316 317 316 316 314 314 314 314 316 313 312 312 310 311 310 308 309 305 303 305 303 303 303 299 303 302 298 298 299 301 302 301 300 300 301 302 295 299 299 300 302 302 302 302 302 302 301 301 301 301 301 301 302 302
318 319 320 320 320 320 321 320 319 318 317 317 316 317 318 318 320 321 321 320 319 319 320 320 323 318 307 308 312 321 324 321 316 317 318 315 314 313 312 313 312 313 313 312 311 310 311 312 310 305 304 305 306 302 301 302 302 302 298 297 301 298 299 300 302 302 300 299 302 300 295 299 299 300 301 302 301 301 302 302 301 301 300 300 301 301 301 301
319 320 319 319 320 320 320 320 319 318 316 316 316 317 319 320 320 320 320 320 320 320 322 321 317 313 308 305 313 323 320 311 314 320 317 315 319 313 314 312 312 311 312 309 311 311 311 311 306 306 304 304 302 301 300 300 301 301 298 297 298 300 300 299 299 301 301 301 301 300 297 300 298 300 301 302 302 301 301 301 301 300 299 300 300 300 301 301
319 320 320 320 321 321 321 319 319 317 316 316 317 318 319 320 320 319 319 318 319 320 323 314 313 313 302 311 314 310 310 314 315 318 314 316 314 314 311 310 309 309 310 310 311 311 309 307 305 305 306 302 304 302 297 296 297 299 300 297 300 298 299 297 298 301 302 300 299 301 298 299 300 300 300 301 302 301 301 301 300 300 300 300 300 300 300 300
319 320 320 320 320 321 320 319 318 317 317 317 316 318 319 320 320 318 320 319 323 318 317 315 314 313 308 309 305 307 313 312 316 315 315 314 314 312 311 308 309 309 309 307 309 306 307 304 304 301 303 301 301 299 294 292 297 298 299 297 297 299 298 298 297 299 300 300 299 300 299 299 301 300 300 300 301 301 301 301 300 299 299 299 299 299 299 300
320 320 320 320 320 320 320 320 318 317 316 317 319 320 320 319 321 322 317 316 312 308 304 305 306 298 297 307 309 310 314 313 315 314 311 312 312 313 312 312 310 307 304 303 304 305 305 305 304 300 297 299 298 299 298 299 301 299 299 298 298 296 298 298 300 300 301 298 298 299 297 300 302 300 300 300 300 300 301 300 299 299 298 298 298 299 299 299
320 321 321 321 321 321 321 320 319 318 317 316 319 318 318 313 314 309 314 313 309 308 309 310 309 309 306 307 308 310 313 314 310 313 313 312 311 309 309 309 309 307 304 301 303 303 307 299 297 297 299 301 302 302 302 302 301 300 299 298 297 297 298 301 299 299 300 298 298 299 300 300 301 303 301 300 300 300 300 298 298 298 298 298 298 298 298 298
320 320 321 321 321 321 321 320 319 318 317 318 318 314 307 307 303 300 309 309 312 311 310 311 311 310 308 311 310 308 306 307 311 310 311 313 312 309 305 306 303 300 303 304 304 303 303 297 298 301 302 303 303 304 302 301 300 299 298 297 296 298 295 300 299 298 300 297 297 300 299 299 300 302 302 300 298 298 299 298 299 298 298 298 298 298 298 298
320 320 320 320 321 321 321 320 319 319 319 318 316 311 312 312 311 310 309 304 311 312 313 312 311 308 309 309 312 313 312 306 305 310 312 311 308 305 305 304 302 299 303 303 302 299 297 296 300 303 305 303 302 302 302 300 299 299 297 297 296 297 300 301 299 298 298 296 296 299 297 298 300 302 302 299 298 300 300 300 299 298 297 297 297 298 297 297
320 320 320 320 321 321 320 320 319 319 317 314 312 313 313 317 316 317 314 310 306 314 312 311 309 308 308 310 310 310 305 303 303 308 309 310 306 305 305 301 301 302 302 301 298 298 295 298 302 304 303 301 299 300 299 299 299 297 297 295 293 298 296 294 297 297 297 297 297 298 295 297 301 303 301 300 299 298 298 297 298 298 297 297 297 297 297 297
319 319 320 320 321 321 320 319 319 316 314 314 313 314 320 316 319 318 311 303 303 309 310 312 311 310 308 306 311 308 305 305 306 306 312 309 305 307 305 303 301 301 299 300 300 298 298 301 304 304 302 301 299 298 298 297 295 298 298 297 296 297 298 296 297 297 297 298 298 297 295 296 299 299 297 296 296 295 295 295 295 296 297 297 297 296 297 297
319 319 319 320 320 320 319 318 314 313 316 314 312 317 320 322 320 320 309 303 303 304 317 315 314 312 311 315 312 306 306 307 307 311 310 309 306 304 303 306 303 299 300 301 300 299 299 302 303 301 301 300 299 297 297 298 295 297 299 298 298 299 297 298 299 296 295 296 296 296 290 293 300 301 300 295 294 293 294 294 294 294 294 294 294 295 295 296
319 319 319 320 320 319 319 312 313 316 313 310 314 318 320 321 322 318 310 298 294 304 306 301 314 305 318 306 310 308 307 301 309 311 310 310 312 306 303 301 303 298 301 300 299 300 300 301 301 300 299 299 299 298 299 299 296 295 297 301 299 298 298 298 297 295 291 290 294 296 290 289 297 296 298 296 294 294 293 293 294 294 294 294 294 295 295 295
319 319 319 320 320 319 311 308 317 315 308 310 317 320 320 322 323 316 300 295 291 305 301 309 308 307 316 309 308 309 294 299 306 310 308 309 305 309 301 300 300 301 302 303 299 295 299 298 300 301 299 299 297 295 299 299 296 294 300 301 300 299 297 297 297 296 294 299 297 294 295 289 289 297 299 298 295 295 293 293 294 294 294 293 294 295 295 295
319 319 319 320 319 317 314 316 314 310 310 313 316 320 321 320 320 314 301 286 286 310 303 301 306 312 312 309 310 304 302 304 300 302 304 306 306 303 301 300 299 299 300 300 290 302 300 297 299 298 298 297 296 299 302 301 297 297 297 301 299 298 298 298 297 295 295 293 289 292 296 288 289 295 298 297 294 295 295 294 294 294 294 294 294 294 295 295
319 319 319 319 319 318 320 315 314 311 316 313 318 319 320 319 315 303 295 284 305 301 316 301 311 308 306 308 305 305 301 302 300 300 304 305 305 303 298 301 302 301 301 300 296 300 299 299 301 301 299 296 300 298 301 302 297 298 299 300 299 299 298 298 295 294 293 290 285 292 295 288 289 297 295 295 294 295 297 296 295 295 294 294 294 294 294 294
319 319 319 319 318 316 317 319 315 319 314 315 315 315 314 311 304 293 287 281 307 296 305 302 302 300 304 300 301 301 299 299 300 300 303 301 302 304 301 304 302 300 299 300 300 299 297 297 299 299 299 301 297 295 296 299 299 299 300 298 297 296 296 295 295 293 290 285 287 293 295 292 286 295 297 295 297 298 299 297 297 296 295 294 294 294 294 293
319 320 319 318 313 315 316 310 315 316 314 312 314 312 309 307 295 288 281 292 305 302 300 299 298 304 299 299 296 300 301 299 298 300 297 300 298 301 301 299 304 299 297 297 295 299 297 297 298 300 298 298 300 295 296 296 300 300 297 295 295 292 294 292 290 292 285 284 291 293 295 295 284 291 298 298 297 299 298 296 295 294 293 293 293 293 294 294
319 319 320 318 318 319 311 310 316 312 310 312 311 308 304 291 296 285 286 303 293 298 298 296 301 301 300 302 301 297 296 297 299 298 297 296 296 295 296 294 296 290 290 292 292 298 295 296 300 297 298 299 297 296 294 296 296 298 296 294 289 288 286 284 287 283 284 284 287 290 291 289 289 294 297 296 297 296 298 299 297 294 294 293 293 293 294 294
318 318 318 319 317 316 317 319 316 311 310 311 309 307 298 288 281 291 293 297 293 302 298 303 299 300 301 300 299 298 300 295 298 298 301 299 298 297 300 299 301 299 291 296 293 292 294 299 298 298 296 298 300 294 291 290 293 294 293 290 288 285 284 281 285 287 287 287 288 289 292 286 293 296 300 298 295 296 295 297 298 296 294 293 293 293 293 293
318 318 317 318 319 318 319 316 314 311 309 309 306 300 295 284 284 296 295 297 298 299 301 299 300 302 301 297 300 298 294 299 296 297 299 297 297 295 297 299 301 299 299 297 292 292 288 289 293 296 293 299 299 299 298 296 293 293 298 295 290 290 286 281 284 282 284 286 285 290 286 286 286 292 293 293 293 293 293 295 298 297 296 294 294 293 293 293
318 318 319 319 317 319 318 317 315 313 309 307 301 294 285 284 289 291 293 297 299 299 297 302 299 299 298 300 298 299 301 294 298 296 295 296 293 295 296 296 300 301 301 293 297 293 293 294 298 301 299 299 297 301 303 299 294 296 297 299 292 290 295 287 286 285 285 285 283 284 286 293 293 294 294 292 293 292 293 293 295 295 295 294 293 292 292 292
316 316 319 314 314 318 318 317 316 312 307 303 296 288 285 290 289 297 296 303 301 297 296 299 300 296 296 297 298 298 302 298 297 297 295 296 298 295 300 300 298 300 298 292 298 291 293 292 294 296 296 298 299 300 300 302 288 293 294 288 292 297 294 287 284 285 284 284 284 289 288 292 296 293 293 293 292 292 292 292 293 293 293 293 292 292 293 293
313 316 311 314 315 319 317 316 315 311 306 301 294 286 292 295 302 301 304 301 302 301 298 293 294 294 294 294 295 296 297 300 296 296 292 297 294 298 298 300 303 301 302 300 296 302 291 293 291 295 291 294 294 298 300 297 300 294 288 293 296 299 297 290 285 286 284 282 284 288 286 289 289 287 292 292 291 291 292 291 293 293 292 291 292 293 293 293
313 313 313 312 316 319 317 316 314 309 303 298 290 292 301 295 306 304 304 302 301 301 298 295 297 299 295 295 294 295 298 295 294 295 294 296 292 303 299 299 303 301 302 304 298 299 300 290 292 294 295 294 295 296 295 298 297 295 293 301 291 286 285 291 287 280 281 281 284 287 289 289 291 291 290 291 291 292 291 291 291 291 291 291 292 293 293 293
313 310 305 313 318 318 316 316 312 305 299 293 290 288 297 300 306 304 305 304 304 301 296 298 296 299 298 296 298 297 296 292 296 293 292 295 291 301 299 300 299 302 302 302 297 299 300 290 290 293 293 294 294 294 287 291 295 296 296 294 299 293 290 287 287 287 288 283 283 284 285 285 294 295 296 296 295 295 292 291 290 291 291 292 293 293 293 293
308 304 303 317 318 318 316 313 307 302 297 288 290 291 300 297 303 307 307 304 301 299 298 298 300 296 298 298 300 294 297 297 294 294 295 297 295 302 299 303 300 300 301 302 299 302 294 297 288 289 294 293 287 291 290 291 288 288 290 291 292 290 292 292 292 288 286 284 284 284 283 287 294 298 298 298 298 296 293 292 292 292 293 293 294 294 293 293
312 305 305 317 317 317 314 307 300 295 293 295 297 295 298 297 301 304 306 307 305 306 301 299 300 296 298 296 297 300 296 296 296 293 295 296 296 292 301 301 303 299 301 299 298 299 291 292 289 287 287 286 291 295 295 297 295 292 291 290 291 288 286 284 283 291 287 285 284 284 282 289 295 293 295 294 296 298 296 293 294 294 294 294 295 295 294 294
305 296 304 317 317 315 306 296 296 299 295 292 291 296 295 302 300 302 304 306 304 302 304 302 300 297 297 297 298 297 296 294 295 294 295 293 298 299 300 299 301 301 297 292 294 301 300 294 291 286 288 289 294 293 295 293 295 296 295 292 295 293 292 287 282 285 286 287 287 286 283 287 292 293 294 294 293 294 296 296 295 295 295 295 295 295 295 295
302 301 312 316 316 312 303 295 297 296 293 295 300 298 300 299 299 303 301 302 299 303 302 299 299 297 297 297 295 296 295 290 293 292 294 294 296 297 297 298 301 300 300 298 299 293 294 290 289 290 293 292 293 295 294 294 295 293 292 292 293 290 292 290 289 289 287 286 284 285 282 287 292 292 291 292 292 292 293 295 297 296 296 295 295 295 295 294
304 303 303 312 315 311 300 290 289 292 293 298 297 297 301 299 299 298 299 302 300 301 300 300 300 302 298 300 297 292 297 288 294 294 292 297 293 297 297 297 301 295 298 296 295 299 290 290 290 287 285 287 289 292 292 294 293 290 290 292 294 296 293 289 288 290 286 288 286 286 281 287 290 289 292 291 292 292 292 293 295 295 295 295 295 294 294 294
301 303 303 305 309 308 297 299 294 292 293 294 295 293 296 298 301 301 300 299 303 302 300 298 301 302 298 299 297 297 297 294 289 292 296 293 295 294 292 296 299 296 297 299 297 303 293 292 290 285 282 280 279 280 283 285 286 290 290 293 294 293 291 287 286 287 284 287 287 285 286 291 291 290 291 292 292 292 292 292 292 295 295 294 294 294 294 294
298 291 298 300 302 299 302 302 301 296 293 294 293 294 296 294 300 303 302 300 303 302 301 300 300 303 297 295 293 293 294 298 293 291 293 292 292 293 293 294 295 298 296 295 297 300 291 293 293 290 289 287 288 289 294 293 290 286 289 290 291 293 293 291 290 287 284 287 286 288 288 289 288 290 290 289 290 292 293 292 291 292 293 294 294 294 294 293
300 295 294 290 299 298 296 299 298 299 294 297 290 295 292 295 297 299 303 296 301 301 300 300 297 295 294 295 294 294 296 295 295 293 292 293 291 290 292 292 294 294 292 295 298 294 289 289 290 290 289 288 287 288 294 294 290 290 289 288 291 290 290 288 286 285 289 286 283 290 292 288 290 291 293 293 293 293 295 295 293 293 293 293 293 293 293 292
293 298 302 301 296 291 291 293 297 298 300 299 294 298 295 294 295 292 299 301 301 302 296 295 296 297 297 296 296 290 292 291 291 288 292 291 289 289 289 292 292 293 293 295 295 294 288 287 290 291 289 290 288 291 292 294 294 293 292 291 289 290 288 285 286 290 290 286 285 290 292 289 292 294 294 295 296 294 295 293 294 295 294 293 292 291 291 290
295 294 295 298 294 295 296 297 297 297 295 297 295 296 294 294 293 296 296 296 297 296 298 290 293 296 298 299 297 291 290 286 285 290 289 288 288 287 287 289 292 291 291 290 291 290 289 287 290 290 288 289 288 288 290 290 290 290 292 292 293 291 289 289 289 291 291 289 292 292 291 291 294 296 296 295 297 297 296 295 294 293 292 291 291 291 290 290
289 292 291 294 294 292 293 294 295 294 291 294 290 293 295 294 293 297 298 296 290 294 299 294 294 296 297 298 296 292 292 293 291 286 290 289 287 289 288 290 287 288 290 289 290 290 291 287 290 288 287 287 288 287 288 288 288 287 289 291 292 293 291 290 289 290 290 290 291 292 290 289 296 298 296 292 291 294 294 292 293 294 293 291 290 290 290 289
294 292 296 292 289 289 290 291 292 292 288 289 287 290 293 295 295 298 295 296 296 293 295 294 296 294 293 295 295 295 297 292 290 291 292 291 287 291 289 289 292 286 288 287 288 288 289 286 287 287 285 284 283 285 284 285 285 285 286 288 289 290 288 289 287 290 289 287 289 289 287 288 294 297 293 292 292 293 293 294 294 293 292 290 290 290 290 289
294 295 293 296 289 292 288 288 287 290 286 290 291 291 291 292 296 298 292 293 292 294 296 298 297 294 288 291 292 296 296 292 292 294 296 296 298 295 295 293 295 291 288 288 290 288 287 286 285 286 283 283 279 284 284 284 284 282 284 287 290 291 291 291 292 292 292 292 288 286 287 293 294 295 293 292 293 293 294 295 294 293 292 291 291 291 291 291
Wind_Speed
1 1 2 2 2 2 3 3 3 4 4 4 5 6 6 6 7 7 8 9 10 10 11 12 12 12 13 13 14 14 15 6 5 3 3 4 4 5 4 3 4 3 4 4 3 4 2 1 1 1 2 3 2 1 1 1 3 3 3 3 4 2 2 5 2 2 5 5 6 3 2 2 3 3 3 3 6 6 5 3 9 9 10 8 6 5 6 7
0 0 1 1 2 2 3 3 4 4 5 5 5 6 7 7 7 8 8 9 10 11 11 12 13 13 13 13 13 14 11 5 5 1 4 3 3 5 3 2 1 3 3 4 3 2 4 1 0 2 3 2 1 2 2 2 2 3 1 3 2 1 5 2 4 4 2 5 3 3 1 3 2 4 3 6 3 4 6 5 7 8 9 8 8 7 7 8
2 1 1 1 1 2 3 3 4 4 5 5 6 6 7 8 8 9 9 10 11 12 12 13 13 13 13 13 12 13 7 4 6 2 3 4 3 4 1 1 3 2 4 5 3 4 4 3 1 4 1 2 0 2 4 3 4 2 4 3 3 4 5 4 1 4 4 2 2 1 2 3 2 2 3 5 6 7 6 2 5 8 5 7 7 8 7 8
2 2 2 1 1 2 3 4 5 5 5 6 6 7 7 9 9 10 10 10 11 12 13 14 14 14 14 14 12 10 5 6 3 5 4 5 5 2 1 1 1 5 5 2 2 1 1 1 2 5 2 3 3 2 3 3 3 3 4 3 5 4 3 5 2 3 3 1 2 1 1 5 2 1 4 5 8 7 9 9 6 6 6 6 7 6 6 7
3 2 1 1 2 3 4 4 5 5 6 6 7 7 8 9 9 10 10 11 11 12 13 14 14 14 14 13 14 5 5 7 4 4 5 5 5 2 2 1 3 4 5 1 3 1 3 2 1 1 4 1 1 2 2 2 3 3 3 4 3 3 2 6 3 3 1 2 3 1 4 1 3 5 5 5 6 2 4 5 4 4 5 5 5 5 5 6
3 2 2 2 3 3 4 5 5 5 6 7 7 7 8 8 9 9 10 11 11 12 13 13 14 15 15 14 9 4 4 2 3 3 6 5 3 3 3 2 5 8 3 3 4 1 3 2 4 3 3 3 2 3 4 1 1 3 5 2 1 1 2 4 3 4 2 3 4 4 1 2 5 6 3 4 4 5 4 4 5 4 4 3 4 4 5 6
4 3 3 3 3 5 4 5 6 6 6 6 7 7 7 8 8 9 10 11 11 12 13 13 13 14 16 15 4 4 6 2 4 3 4 5 5 5 2 1 3 4 4 4 3 4 2 3 4 1 2 3 2 3 2 1 2 5 1 4 4 2 3 3 2 5 4 5 5 3 2 6 6 9 3 4 6 5 5 5 5 4 4 3 4 5 6 7
6 5 5 3 2 5 5 5 5 6 6 7 7 7 7 8 8 9 10 11 12 12 12 12 13 13 13 5 4 3 4 1 5 1 4 2 5 4 2 1 2 3 5 5 4 4 3 5 4 1 5 5 4 2 3 4 5 4 4 3 4 2 4 2 3 5 6 7 5 2 6 9 7 5 3 4 5 5 5 4 4 4 3 4 5 6 6 6
7 7 5 3 1 4 4 4 4 5 6 6 7 7 8 8 8 9 10 11 12 12 11 12 12 11 9 4 4 6 3 4 4 4 2 3 3 2 3 3 4 4 3 3 3 4 4 2 3 3 4 2 2 3 2 4 4 1 3 1 2 4 4 4 6 7 7 5 5 6 9 8 5 2 6 4 5 5 5 4 3 3 3 3 5 6 6 6
9 8 6 5 6 6 7 6 4 6 7 7 7 8 8 8 9 9 10 11 11 11 11 11 10 12 5 3 2 6 2 3 2 3 3 2 4 3 3 3 3 5 5 2 3 4 4 4 3 3 4 2 1 1 3 5 3 3 2 3 5 6 4 6 8 7 4 5 6 8 8 5 4 5 4 4 6 6 5 4 4 2 3 5 4 4 4 5
10 9 8 9 7 8 8 8 5 6 6 7 7 7 8 8 9 9 10 11 11 11 10 10 10 9 3 3 6 7 2 3 1 2 2 1 4 5 3 2 3 5 5 1 4 2 3 2 1 1 2 1 3 3 3 3 2 2 4 6 10 10 9 7 8 8 4 6 8 8 7 2 5 4 2 8 7 7 6 5 4 3 3 4 4 4 4 4
11 10 11 10 11 10 8 7 4 6 5 6 7 8 8 8 9 10 10 11 11 10 8 7 9 4 5 5 7 2 2 3 1 3 3 1 2 3 3 2 2 3 4 4 3 1 2 1 3 3 2 1 3 2 3 1 2 1 4 7 4 6 9 10 8 4 4 3 4 4 5 8 9 7 8 7 7 7 6 5 4 4 3 3 3 4 4 5
11 11 12 11 11 11 10 6 3 4 5 6 7 8 8 8 9 10 11 11 8 8 5 5 6 4 3 7 2 3 2 2 3 3 3 4 5 3 3 3 2 2 4 5 0 2 1 2 3 6 1 4 3 2 4 4 1 3 7 6 9 9 10 6 3 3 6 4 5 5 5 7 12 8 8 7 8 7 6 5 4 4 3 3 3 3 4 3
10 11 12 9 6 8 9 7 4 3 3 4 7 8 8 8 9 10 11 10 9 8 6 6 5 5 4 6 3 1 1 2 3 5 5 5 5 3 3 3 2 1 2 1 5 2 1 0 3 2 2 3 0 3 4 3 4 5 1 3 7 6 3 7 5 6 5 5 6 5 6 2 10 9 7 5 8 8 7 6 5 4 3 3 3 2 3 4
12 11 10 7 7 6 6 7 5 4 1 4 7 7 8 8 11 11 8 8 3 6 4 5 5 4 6 2 4 4 3 2 4 5 4 4 5 5 4 4 4 4 3 4 3 1 1 2 3 5 2 2 2 3 6 6 6 5 4 7 6 6 3 6 5 5 5 4 6 6 6 7 10 9 7 6 7 7 6 5 5 4 3 3 3 3 3 4
12 11 10 9 8 7 7 8 6 3 2 4 8 9 9 11 11 8 6 6 8 8 5 4 4 3 5 8 3 3 3 5 6 5 2 2 2 2 6 5 5 5 4 4 2 2 1 3 3 3 3 3 5 5 6 6 7 7 7 8 8 5 3 7 4 2 1 3 7 9 7 2 7 8 6 5 7 8 6 6 5 5 4 3 3 2 2 4
11 10 10 10 9 9 7 9 6 3 1 3 9 10 11 10 6 5 4 4 3 4 3 1 3 2 6 3 3 4 6 4 3 3 3 0 2 5 7 7 5 6 5 6 3 4 2 4 2 3 5 6 5 5 5 7 8 7 6 7 6 7 5 6 6 4 4 5 6 8 8 10 5 11 10 7 7 8 7 6 6 4 4 3 3 3 3 2
12 12 10 10 11 8 8 8 6 4 2 5 7 7 6 3 6 7 5 4 2 2 3 2 3 3 8 5 7 2 6 5 4 4 3 1 4 7 7 5 5 7 7 7 3 6 4 4 3 6 5 7 7 7 7 8 6 6 4 5 7 8 9 9 5 7 5 6 6 6 10 12 6 10 10 9 8 7 7 6 6 5 5 4 3 3 3 2
13 12 10 12 11 8 8 8 8 4 2 6 8 9 7 5 5 5 2 3 4 3 4 7 6 8 6 5 6 7 2 4 4 4 5 8 3 4 2 3 8 9 7 6 5 8 4 4 3 5 10 10 10 12 11 12 10 9 8 7 7 7 6 5 1 8 5 6 6 10 11 10 11 9 9 8 8 8 6 5 5 5 4 4 4 3 3 3
14 13 13 13 11 11 9 11 9 4 1 5 4 3 3 3 3 3 5 6 9 11 3 1 13 2 6 6 6 5 4 3 4 2 7 4 8 8 7 6 6 6 7 7 6 8 5 8 8 9 12 11 11 14 14 13 6 4 4 8 10 10 11 9 5 4 4 4 10 12 13 14 14 12 10 9 8 7 7 8 7 6 6 5 5 5 4 4
13 13 13 12 11 10 10 12 9 5 4 4 5 3 4 5 6 5 6 10 14 13 12 8 8 7 4 7 7 10 6 5 2 6 7 5 6 10 7 8 8 8 9 8 6 3 3 9 12 15 13 11 10 10 12 9 4 8 9 10 9 8 10 9 1 5 2 3 7 9 10 12 14 13 7 9 9 10 10 10 9 8 7 6 6 6 5 4
14 13 13 13 11 11 13 12 9 6 4 4 4 6 5 5 4 3 4 7 11 17 14 13 1 6 4 3 7 2 4 4 5 9 3 6 9 11 9 10 11 9 8 6 4 3 7 12 13 14 8 3 1 3 6 8 9 8 9 8 8 9 8 10 4 5 3 3 8 9 12 12 11 12 8 11 10 7 8 8 8 8 7 6 6 6 6 5
15 14 14 12 11 12 15 12 9 8 5 5 6 9 6 7 5 4 4 7 12 10 14 13 11 14 10 5 5 2 9 11 9 12 11 9 10 11 9 10 10 10 9 11 10 8 10 11 16 11 5 6 4 5 6 7 9 8 8 8 9 6 6 6 6 1 4 4 4 5 10 11 14 15 8 5 6 5 3 2 3 4 6 7 7 6 6 6
14 13 13 12 10 13 16 12 9 6 7 9 10 9 3 3 6 8 4 6 8 7 10 12 14 11 14 9 9 11 12 9 10 12 11 11 11 7 8 13 12 11 11 13 16 13 13 2 1 11 7 9 10 7 8 8 9 9 11 9 8 10 8 8 3 2 4 9 6 9 11 12 13 15 7 5 4 4 5 5 4 3 2 2 3 2 3 6
16 15 14 11 10 13 12 11 7 6 7 9 12 11 8 5 4 6 5 7 9 9 4 3 3 8 7 7 12 11 12 10 11 7 15 15 11 7 9 7 8 12 12 14 14 15 17 3 2 8 8 9 9 9 10 8 9 10 13 12 12 10 11 9 7 6 8 10 7 7 7 8 4 10 10 8 5 6 7 8 8 7 6 5 5 6 4 2
16 16 15 13 15 14 14 7 7 7 9 10 5 6 9 7 6 2 3 4 11 4 5 8 10 7 10 8 11 8 4 12 5 7 13 10 5 6 5 8 7 12 13 12 12 10 6 6 7 9 8 8 10 10 9 11 10 9 6 12 12 11 10 8 8 0 7 6 3 2 6 7 2 5 7 7 7 8 8 8 9 8 8 7 6 6 6 6
17 17 15 15 18 18 8 5 5 9 7 8 9 6 1 3 1 4 3 5 14 8 11 3 8 1 3 12 15 11 5 9 6 7 10 2 9 1 8 8 5 2 3 4 1 9 7 7 5 5 8 8 9 10 10 12 8 9 5 2 3 6 7 8 7 8 9 5 2 5 6 9 9 7 5 8 8 9 10 10 10 9 9 10 8 8 8 7
17 17 16 15 18 21 4 5 10 9 6 3 3 5 5 2 1 3 3 5 8 10 8 4 0 4 2 11 15 14 4 13 7 6 4 2 1 4 7 13 11 11 9 8 12 4 11 10 10 10 10 9 11 11 6 12 9 2 2 2 2 3 5 6 6 7 6 5 8 7 8 5 8 7 6 7 6 9 11 11 12 11 11 11 10 9 9 8
19 18 17 17 20 18 4 7 8 9 3 3 3 3 4 4 6 3 2 8 2 3 4 6 4 4 7 9 14 7 6 2 3 5 1 3 5 1 9 14 10 9 13 15 13 3 2 3 9 13 10 11 5 7 3 9 11 3 4 6 5 3 1 4 5 5 5 5 11 8 10 7 11 5 6 3 5 8 9 11 12 14 13 12 10 10 10 8
20 20 20 21 18 14 6 4 8 4 7 4 4 1 6 5 4 5 5 10 5 5 4 4 6 10 12 14 11 5 6 3 4 6 7 6 8 2 4 5 5 8 7 11 12 3 2 1 3 3 9 3 7 6 6 5 5 9 7 5 5 4 3 3 3 4 4 12 11 11 12 10 7 4 7 6 5 5 6 7 8 11 12 11 10 11 10 9
22 21 21 23 14 9 5 8 9 7 7 6 6 6 5 1 4 7 10 7 5 1 3 8 6 13 16 15 10 10 8 5 8 11 8 4 7 7 5 4 4 4 5 7 9 6 3 4 3 2 5 5 6 6 6 2 4 7 4 5 4 2 3 5 3 3 7 12 3 3 11 14 10 3 5 5 5 4 6 9 13 14 13 11 10 10 10 9
22 22 22 17 9 9 14 8 11 8 7 7 8 7 5 6 4 10 9 10 5 8 13 9 9 12 16 14 6 13 12 8 10 10 11 10 10 13 15 12 12 8 9 11 9 6 8 8 4 5 3 6 6 6 3 3 3 5 6 7 5 4 2 5 5 8 10 9 2 1 5 3 14 11 3 4 5 4 4 4 12 13 13 12 10 11 10 9
24 25 26 16 13 10 7 7 11 9 10 9 7 3 6 6 13 15 11 10 4 7 5 9 13 15 16 14 10 9 6 9 11 10 9 9 10 12 13 13 12 10 6 9 10 5 5 7 11 7 4 8 10 10 7 4 8 10 11 8 8 8 9 9 7 6 6 2 2 3 4 7 5 9 14 3 8 6 4 5 8 12 13 12 11 11 10 9
22 19 12 15 17 12 8 12 11 14 12 6 8 7 3 7 12 13 14 12 3 4 8 7 12 10 15 11 8 12 6 5 12 9 11 9 12 11 12 17 15 14 4 4 11 10 6 4 11 13 8 13 14 14 12 7 12 12 9 10 9 8 5 8 7 11 5 0 4 1 3 4 5 3 4 6 4 5 5 4 6 10 11 11 11 10 10 11
23 19 17 11 11 10 10 13 14 13 12 9 9 14 16 14 10 9 13 12 2 3 3 8 11 11 11 8 4 13 5 4 10 9 9 10 13 12 13 15 18 12 9 8 8 4 14 8 5 12 3 17 14 9 3 8 7 9 8 5 9 11 4 7 1 3 2 1 4 5 5 3 4 4 5 4 5 4 5 6 7 10 11 12 11 11 11 10
14 10 13 6 12 14 13 12 15 14 12 12 11 12 17 16 6 8 7 13 7 8 9 8 8 9 10 9 5 12 4 0 12 9 8 12 10 11 13 8 14 19 14 13 6 7 4 8 6 4 0 11 12 6 7 8 8 9 7 8 8 5 1 0 1 1 0 2 9 6 5 7 1 3 6 6 5 6 4 6 8 10 11 11 10 11 11 11
8 10 8 13 14 15 14 14 16 12 9 14 15 14 16 9 3 7 2 11 12 14 12 9 10 11 10 10 8 12 9 4 9 10 8 8 10 16 11 13 12 18 19 10 6 7 4 3 1 7 6 1 5 5 3 3 3 9 7 8 5 2 4 1 7 3 3 9 6 8 9 7 7 6 6 7 6 8 7 7 8 10 11 12 10 11 12 12
7 5 11 13 15 16 15 15 18 13 10 13 19 19 3 11 9 0 2 2 5 15 9 13 7 15 11 10 11 13 12 11 12 10 8 13 6 13 15 8 13 18 21 14 8 4 7 6 5 2 3 4 2 2 3 1 4 3 2 5 8 6 6 9 2 9 9 9 6 8 12 11 10 7 5 7 9 11 11 9 9 11 12 12 12 12 12 11
5 4 4 12 11 16 15 16 16 14 9 13 13 15 12 9 7 7 3 2 4 8 14 14 11 10 12 11 10 15 16 12 13 11 8 10 8 12 17 12 11 18 17 12 5 4 5 8 3 1 3 5 5 8 10 10 3 2 1 5 1 2 7 8 9 2 2 9 5 3 4 6 8 9 11 13 13 12 11 11 12 13 13 12 12 13 14 14
5 3 7 11 18 15 16 16 13 13 10 15 15 15 5 11 13 8 6 7 5 7 9 11 14 12 12 14 12 10 12 12 13 10 12 8 9 8 13 15 10 14 18 18 8 5 4 2 7 5 1 8 6 10 12 14 13 7 6 9 5 3 3 4 2 6 5 5 7 8 7 3 5 4 8 10 12 12 14 13 12 12 13 13 13 14 15 15
4 2 2 13 19 19 16 13 12 17 15 12 8 10 9 11 11 14 11 7 4 4 3 1 2 10 7 8 11 10 8 12 10 9 10 8 13 5 11 12 11 11 11 8 7 6 3 7 9 6 6 9 5 4 5 5 13 13 14 15 15 11 8 7 8 3 2 2 5 5 11 1 3 4 6 8 6 7 9 8 10 11 13 13 13 15 14 13
5 9 6 15 20 21 16 14 8 10 10 14 16 12 9 2 3 13 12 5 9 6 3 3 2 2 0 5 1 5 6 7 9 8 8 9 10 12 4 6 6 14 14 11 15 10 6 2 5 6 8 9 2 3 2 3 5 6 10 10 10 8 7 7 10 5 1 4 2 1 5 4 3 3 4 5 5 6 5 8 7 9 11 12 11 11 11 11
7 9 5 17 23 22 13 14 11 10 9 11 3 1 6 4 7 4 11 11 8 7 4 7 9 5 4 6 1 4 7 4 9 10 8 10 4 3 3 2 2 13 9 1 6 1 8 3 7 4 5 4 3 3 1 1 3 4 5 2 6 14 14 8 3 2 6 3 3 4 7 3 2 4 3 3 4 3 1 3 6 6 7 10 11 11 12 12
4 4 3 1 17 19 18 13 10 11 13 6 9 11 6 10 9 9 12 11 10 9 11 6 1 11 6 5 3 6 7 4 7 8 5 2 3 4 1 1 7 5 12 8 11 12 7 6 6 6 2 3 4 3 4 3 4 6 8 10 9 6 5 2 3 1 3 8 5 7 13 2 2 1 1 2 3 3 4 3 3 7 7 8 9 9 10 11
3 1 1 3 6 13 14 10 13 12 13 14 12 18 13 11 12 17 12 15 12 9 6 11 13 5 5 3 5 3 7 13 1 4 2 0 2 0 3 2 4 3 3 5 5 10 6 5 12 15 15 13 11 15 16 13 13 9 4 6 9 12 9 5 7 5 8 5 9 9 10 2 2 2 2 2 2 2 4 4 4 4 7 8 9 10 11 12
3 4 3 3 4 3 6 1 9 13 14 14 14 14 17 14 9 12 15 14 12 11 11 2 2 9 6 5 5 8 11 4 6 2 6 5 2 1 1 4 2 2 1 2 3 5 3 1 9 12 9 8 4 2 6 12 9 10 11 12 12 10 9 6 1 5 12 3 9 13 5 1 6 6 4 2 2 6 5 6 7 7 7 7 9 10 10 10
1 6 6 5 1 8 3 3 6 9 13 15 11 7 15 18 12 6 14 9 15 15 10 10 5 8 7 13 13 12 12 11 5 3 9 7 2 0 2 1 3 3 5 1 1 4 1 6 11 10 1 2 2 1 4 17 13 11 11 14 11 11 10 12 12 10 5 1 13 6 8 12 10 9 9 8 8 7 6 7 7 7 9 10 10 10 11 10
5 2 2 1 3 5 8 9 9 11 13 14 11 9 14 18 16 10 8 13 4 12 9 1 8 16 15 17 13 7 8 11 8 10 5 3 5 1 1 1 2 2 3 2 3 3 3 9 8 7 9 5 2 1 3 1 7 9 13 12 14 13 12 16 16 10 8 10 11 7 15 13 12 11 12 11 10 10 10 6 8 8 8 8 9 10 11 11
2 2 0 4 4 2 8 3 7 9 8 11 5 12 12 17 19 16 8 10 8 6 16 10 19 21 18 15 12 8 9 5 10 10 7 6 9 5 3 2 4 2 2 1 1 1 2 6 4 6 9 4 3 3 1 1 1 1 7 13 14 14 16 15 13 14 15 12 12 9 8 13 10 9 10 8 4 5 5 6 6 7 9 10 10 10 11 12
4 3 2 2 3 2 2 3 5 5 8 5 6 9 13 15 20 14 7 11 8 11 13 18 18 17 18 18 16 13 16 19 10 10 7 11 4 6 8 6 4 1 1 5 4 2 4 3 6 3 6 6 4 3 3 2 4 7 8 10 13 13 12 14 15 17 15 14 15 8 10 17 9 7 5 4 4 4 5 6 8 7 8 9 10 10 11 12
1 1 1 4 3 2 2 1 4 8 4 2 3 3 6 11 16 16 8 1 14 13 14 22 24 10 7 13 15 19 16 10 5 10 14 19 15 14 10 4 10 7 5 3 2 2 3 2 2 2 6 4 1 3 3 2 1 4 12 17 16 12 11 13 12 9 10 16 11 6 12 15 5 9 6 6 5 7 10 10 8 7 8 9 10 10 11 11
1 2 1 1 2 4 4 2 1 3 11 9 9 8 6 10 10 6 7 1 2 2 5 15 14 9 3 11 20 19 8 9 5 5 7 4 5 5 2 5 9 10 7 7 2 5 4 5 6 5 5 2 2 1 4 4 1 7 18 17 11 11 9 10 9 12 15 13 7 12 14 7 6 7 7 6 9 10 10 10 8 7 9 11 11 10 10 9
Wind_Direction
128 60 38 23 19 13 18 28 13 1 3 5 4 353 354 357 354 350 348 344 341 341 335 335 339 338 337 338 341 338 326 311 276 252 238 63 6 354 322 307 266 235 219 259 227 243 207 208 205 222 244 249 40 237 43 300 342 251 236 253 226 73 208 123 219 127 86 147 127 138 17 309 251 145 134 244 225 235 261 226 97 80 74 73 73 39 23 23
261 293 350 349 353 5 348 2 12 357 354 359 358 352 349 349 349 347 348 342 341 338 337 339 337 338 336 337 338 338 324 288 277 88 37 37 18 347 327 280 214 195 236 247 260 303 288 186 348 267 253 198 219 60 239 100 288 288 266 246 29 51 70 25 65 89 200 111 88 106 42 318 339 341 82 295 198 200 282 158 133 104 107 92 61 43 34 28
249 245 260 293 344 338 355 349 352 357 351 351 351 352 347 345 344 344 345 345 341 339 337 336 338 334 334 335 336 330 320 272 246 98 70 34 10 350 66 114 196 162 252 327 355 317 332 3 343 278 345 260 15 88 248 70 287 70 291 244 97 70 100 78 97 107 47 71 164 192 123 296 340 301 12 270 302 284 255 98 162 143 103 44 43 38 28 34
245 260 246 268 325 347 351 349 351 345 346 351 348 348 346 343 343 343 343 342 340 338 336 335 335 335 331 330 338 324 281 281 228 100 79 31 21 17 54 108 288 232 251 284 316 302 301 193 252 275 249 257 120 226 229 64 278 72 256 335 97 121 164 152 130 81 86 1 325 278 61 266 210 327 307 305 295 260 96 45 7 342 11 27 32 33 25 34
224 224 275 281 337 355 353 346 348 346 342 348 349 342 343 340 341 339 339 338 338 334 335 332 333 332 331 326 321 292 298 271 97 89 30 17 11 42 66 20 296 284 283 192 208 184 244 272 249 280 272 144 154 211 82 97 11 280 11 56 99 139 227 123 130 69 75 359 294 271 257 310 53 267 254 279 268 348 46 46 38 36 32 30 24 28 32 34
235 238 248 307 326 339 345 342 342 343 339 339 342 338 331 337 338 335 334 336 332 334 332 332 330 330 327 320 312 263 276 333 142 143 356 359 23 69 46 335 292 281 210 210 275 279 242 196 242 215 215 249 159 278 93 36 346 258 139 141 126 73 309 124 148 129 213 215 237 249 292 344 268 277 253 271 301 73 72 66 72 74 51 51 48 31 42 38
230 252 256 292 313 316 328 337 334 335 332 328 333 331 327 331 332 333 331 330 331 330 332 331 331 331 326 308 254 259 276 321 178 76 20 344 68 75 68 225 260 246 234 260 238 249 234 256 255 250 258 253 173 275 98 127 215 283 36 138 163 137 240 127 158 146 206 225 239 286 13 271 264 260 112 231 84 91 85 81 89 85 88 66 63 51 49 42
232 246 265 190 304 308 309 318 324 324 325 323 320 324 322 324 329 328 329 326 326 327 331 329 334 329 339 313 265 237 234 232 74 95 35 5 124 115 215 205 232 249 249 269 285 265 273 247 256 126 252 301 77 255 106 250 212 239 244 150 115 254 247 212 192 201 213 226 250 217 256 253 234 262 168 185 110 114 112 115 100 103 96 74 58 53 48 43
234 235 253 171 235 269 269 282 314 319 315 319 318 316 318 324 319 326 322 324 323 324 324 331 329 333 310 277 278 300 263 54 19 57 109 134 107 113 250 183 200 231 258 268 270 298 265 209 270 244 357 260 132 272 173 286 200 253 24 99 167 224 217 213 237 234 223 228 211 228 244 242 217 84 238 122 133 126 128 125 132 128 97 72 60 52 44 43
237 231 236 199 231 235 241 250 314 322 315 312 316 314 313 316 317 315 320 318 318 321 320 328 337 322 308 238 250 261 71 300 67 66 49 105 135 157 223 326 200 234 238 202 254 243 246 3 337 66 314 289 231 344 65 248 14 327 20 290 273 273 244 235 241 248 210 233 185 234 261 225 146 195 197 144 141 144 149 130 131 150 97 75 68 60 47 50
234 229 230 222 223 229 236 241 304 310 314 312 311 308 311 308 310 311 314 315 317 313 318 322 329 321 281 248 253 264 78 254 42 103 91 121 159 191 212 211 250 247 261 186 261 312 1 280 46 150 245 27 175 159 253 51 0 336 325 289 256 249 242 235 228 246 216 235 212 238 252 114 147 188 270 140 146 162 161 143 137 137 93 82 69 60 47 44
229 227 240 233 223 229 243 230 274 316 318 310 307 305 305 305 305 310 311 313 310 309 314 327 311 298 280 266 243 280 328 28 157 133 133 200 119 38 22 354 327 301 261 257 199 253 334 354 237 217 341 78 217 98 172 117 287 326 283 290 287 247 243 227 230 199 192 212 181 201 233 223 179 218 125 130 153 167 166 151 151 132 116 96 76 64 49 38
226 227 240 241 229 228 238 233 223 281 310 311 305 303 301 301 307 307 311 305 308 306 319 324 302 265 279 247 238 62 311 118 124 127 131 109 101 85 71 45 346 343 349 301 274 131 338 244 235 235 18 281 322 295 91 223 158 265 240 269 288 265 246 141 129 172 211 114 173 183 255 218 191 147 131 135 160 172 170 176 163 146 138 116 102 95 81 57
220 231 243 252 245 220 226 229 222 222 256 290 302 301 299 298 300 306 306 303 306 307 277 292 301 263 243 261 88 30 52 102 145 163 140 157 154 87 108 97 51 26 1 328 58 52 142 227 259 60 63 316 299 132 196 194 214 260 295 230 267 273 248 141 162 147 200 131 174 228 255 52 140 126 123 146 161 176 186 169 162 154 146 136 123 120 109 97
213 223 241 240 232 217 206 209 217 223 209 306 293 292 291 296 302 305 306 298 294 320 309 275 250 242 222 237 98 90 312 283 197 160 134 194 156 136 137 125 89 73 75 70 103 64 188 171 195 208 168 48 138 209 254 256 235 238 267 246 207 245 127 143 144 183 235 149 202 217 256 270 152 151 136 140 175 190 209 170 161 154 148 134 137 133 124 100
215 214 220 235 244 251 224 205 214 218 84 292 283 276 285 289 297 302 301 302 306 289 263 252 180 271 305 254 110 158 220 199 182 98 136 334 276 249 120 117 117 116 125 77 90 144 166 201 261 359 100 155 230 245 271 263 247 220 234 268 269 239 244 181 155 190 248 141 176 210 273 82 159 140 137 151 165 195 207 178 171 157 150 154 144 138 126 137
219 218 213 225 230 241 214 204 202 138 195 271 276 278 282 278 292 297 303 282 260 228 251 311 152 183 260 71 121 219 208 145 65 158 139 314 300 149 148 147 147 123 108 122 142 176 149 206 113 234 234 256 244 239 249 248 260 237 200 257 266 264 265 270 111 191 158 224 204 205 243 265 110 163 158 161 184 191 205 189 172 164 157 144 145 152 145 135
215 222 212 225 231 219 201 192 174 195 282 289 281 299 298 321 296 296 228 224 224 247 233 287 240 264 229 122 230 194 65 115 160 126 131 124 253 177 171 165 140 148 147 139 166 209 174 203 168 255 214 217 223 211 216 238 242 275 193 242 256 234 237 270 252 141 191 188 268 233 239 259 235 157 170 168 183 194 207 188 178 169 164 162 160 153 146 126
215 218 208 222 233 221 201 186 178 205 231 295 287 286 275 282 272 263 238 177 192 161 210 181 188 203 282 158 106 106 82 87 111 172 160 162 178 172 165 162 178 158 185 205 166 202 166 219 185 236 240 222 208 213 224 239 278 289 294 289 296 281 250 250 211 117 232 215 235 246 255 258 263 173 170 169 178 203 190 157 162 171 167 168 170 168 163 154
215 215 217 221 223 224 202 181 183 188 117 258 245 231 222 214 185 178 200 216 233 230 344 178 199 344 95 150 139 63 150 203 152 163 137 154 155 171 171 173 164 223 212 211 151 205 168 211 213 215 230 233 223 223 232 255 301 307 294 278 271 275 272 274 148 127 124 270 252 257 261 264 264 261 178 175 174 193 187 189 180 180 178 176 176 170 161 153
215 214 219 225 222 220 197 181 180 173 164 265 266 239 228 225 216 239 167 219 223 238 254 246 224 258 297 99 121 157 140 178 270 161 167 171 200 166 173 180 179 208 212 222 200 90 189 228 229 232 240 254 260 227 234 244 260 269 276 271 267 253 264 274 294 128 148 243 271 270 265 256 267 269 193 163 174 196 196 196 190 180 179 177 177 170 173 140
214 212 218 224 224 223 197 172 179 174 144 233 235 231 317 8 352 313 313 266 208 226 236 242 18 257 141 162 158 215 273 161 185 160 145 194 172 204 163 197 194 217 181 158 123 182 208 225 231 235 241 135 40 241 247 252 255 246 256 258 260 256 267 267 162 142 170 173 270 264 267 267 263 266 171 184 191 200 193 194 192 181 178 179 178 174 165 160
211 211 215 218 223 221 182 168 185 174 173 202 221 239 274 353 331 326 295 272 280 211 216 216 220 231 217 151 172 202 199 208 199 176 175 203 171 225 169 195 206 220 169 185 212 214 240 236 231 236 180 199 196 215 227 239 243 248 234 235 239 259 253 256 127 178 169 242 316 326 286 275 270 264 193 179 188 132 127 154 149 183 186 186 181 175 175 169
210 210 213 215 216 190 169 171 174 172 199 214 233 229 46 348 340 334 277 258 286 201 204 212 217 214 209 187 171 181 206 220 228 187 162 183 185 190 212 204 216 215 210 200 216 228 231 350 228 187 192 216 232 204 213 221 240 221 233 243 246 239 234 243 293 142 194 238 242 272 273 268 250 244 176 152 124 153 168 181 186 194 200 124 102 123 186 174
208 209 211 209 184 164 164 164 187 206 196 218 242 248 266 271 302 338 304 280 236 234 95 233 176 227 193 60 141 185 212 243 234 157 169 187 172 152 217 203 230 229 221 213 225 239 248 179 156 174 198 216 223 220 207 219 244 245 219 223 243 255 264 268 274 321 291 284 183 229 296 276 237 227 209 142 174 198 182 188 196 184 182 177 187 182 163 125
204 206 206 191 172 160 153 191 214 195 191 215 223 230 239 248 264 298 291 252 277 199 98 229 146 218 127 168 148 189 105 232 197 157 160 203 180 211 121 216 199 235 221 219 227 242 260 124 187 176 175 204 215 229 208 203 245 251 264 194 234 251 267 270 269 144 273 271 83 264 244 280 150 195 185 157 180 187 166 202 190 178 178 180 185 173 174 173
205 204 202 189 173 149 161 226 162 167 188 242 224 218 226 231 207 297 226 243 272 155 175 82 187 231 292 158 157 142 217 204 100 121 161 28 183 303 215 200 167 259 318 196 220 236 132 168 150 171 192 202 216 223 210 204 232 246 51 163 196 243 243 244 238 237 260 297 190 199 246 275 276 266 146 164 188 185 182 193 190 181 178 181 177 173 169 167
203 203 199 189 175 164 212 144 151 177 189 74 348 203 173 148 185 248 235 273 264 122 161 189 229 351 254 158 170 176 31 111 152 181 15 96 266 154 222 216 194 202 185 167 226 86 174 176 179 196 201 210 222 231 206 193 221 261 66 65 196 247 261 247 242 246 254 301 265 191 208 263 265 236 156 173 213 215 209 187 188 183 181 178 175 170 166 165
200 197 192 177 171 191 231 167 176 198 159 109 84 193 128 162 209 220 206 239 106 98 353 118 269 152 108 161 185 178 144 296 273 76 173 73 333 282 202 231 236 234 193 198 236 174 1 186 195 203 197 219 173 57 54 178 224 117 122 78 78 87 106 235 230 239 248 242 249 232 192 249 268 234 183 177 256 241 211 187 184 183 177 175 171 165 163 156
198 196 186 177 173 191 207 185 211 131 90 98 90 94 122 150 153 183 132 248 148 211 125 98 192 176 152 160 188 159 178 113 48 139 152 175 185 257 12 339 242 220 204 222 246 359 116 136 13 253 220 237 90 67 39 42 64 132 139 125 119 133 170 183 233 251 266 245 249 230 217 216 284 259 198 197 214 218 148 162 172 167 166 167 166 163 162 159
197 192 187 173 182 181 152 204 176 97 110 99 134 150 148 247 199 172 209 223 349 106 99 155 139 138 160 159 182 193 206 130 146 147 143 151 154 214 181 168 227 227 225 226 243 207 172 111 178 197 69 105 116 86 52 26 138 161 158 176 162 189 188 222 222 216 243 261 234 218 234 203 231 229 211 75 72 96 142 170 168 166 167 164 160 161 160 158
196 189 182 180 170 151 191 197 150 119 115 134 147 156 178 173 307 194 221 81 244 167 168 157 143 168 176 187 164 169 179 164 163 182 169 180 172 183 193 196 163 191 225 212 229 167 221 201 167 106 285 165 157 146 96 125 171 209 181 180 193 226 159 224 196 216 217 247 103 28 74 205 238 252 55 117 136 110 50 147 167 162 161 157 155 155 157 155
194 194 181 184 169 195 191 112 125 123 122 144 152 161 174 179 210 213 231 155 239 122 148 140 167 177 182 183 208 159 158 183 168 189 175 183 191 210 208 214 186 196 255 185 202 160 238 189 183 171 115 220 186 187 158 177 194 189 193 181 197 227 226 245 230 232 252 98 288 89 205 249 299 243 251 217 97 86 89 55 147 157 156 152 153 153 155 156
196 188 178 191 191 183 162 138 138 131 128 148 153 158 212 209 225 215 214 214 220 15 115 156 156 174 177 188 185 149 165 205 159 180 186 183 202 208 205 217 214 212 250 176 196 188 219 215 213 162 220 167 203 214 191 191 168 198 196 193 201 209 227 239 219 227 239 233 100 249 147 238 175 189 59 89 84 94 79 84 110 142 140 142 148 151 154 161
199 192 193 188 185 180 160 147 147 142 133 146 169 178 192 220 237 196 210 209 199 150 83 148 154 161 190 207 103 182 195 165 188 162 191 191 201 212 200 200 207 219 199 228 212 199 219 251 77 170 4 158 193 201 234 176 164 190 198 220 229 227 271 257 20 342 63 201 172 172 229 244 227 112 108 110 126 99 117 112 130 133 140 142 151 160 166 170
198 202 191 174 193 176 163 158 148 144 150 159 180 190 206 200 206 177 228 205 192 169 131 143 167 180 193 198 154 189 174 241 173 184 207 215 223 216 214 202 195 195 192 203 157 211 164 230 110 109 180 180 188 164 183 170 200 171 162 209 193 25 178 79 155 116 294 314 255 159 231 244 204 172 148 154 148 150 145 144 151 151 147 153 162 169 172 175
194 188 195 197 193 167 164 156 151 151 171 172 189 204 213 220 268 201 235 219 205 144 150 188 199 195 191 200 183 187 179 155 166 184 209 185 243 228 215 216 199 197 211 197 212 213 201 170 85 157 193 32 19 323 160 17 353 117 211 195 81 42 2 241 253 188 216 255 261 160 210 223 181 237 132 158 179 171 178 168 170 161 160 165 175 177 178 178
197 195 216 200 188 163 160 160 150 159 169 188 199 220 155 222 196 283 58 36 148 164 203 208 216 181 213 193 193 177 173 191 176 181 227 162 261 180 203 213 200 202 202 214 252 205 205 253 150 188 84 90 359 125 170 173 353 248 240 111 154 198 217 212 231 249 242 240 260 215 214 233 213 213 143 189 191 188 183 170 173 175 178 180 179 182 180 173
186 176 246 203 141 160 158 158 155 164 179 192 197 226 226 234 201 221 162 280 331 201 213 216 224 198 217 211 203 169 166 196 162 189 191 190 228 177 189 181 205 205 201 188 221 214 173 234 170 264 172 143 166 188 198 184 186 290 196 214 223 324 220 189 200 288 245 248 232 257 132 246 198 227 175 195 195 183 166 172 192 191 185 181 180 180 180 181
153 184 251 135 157 150 155 158 161 171 194 200 198 224 182 210 206 183 181 197 225 226 223 235 223 241 210 234 209 164 190 198 166 192 204 170 208 149 197 183 203 190 198 195 207 166 217 121 257 113 87 140 197 194 209 177 179 174 200 204 166 213 23 325 271 214 223 246 244 270 257 229 195 202 201 198 187 169 170 182 186 190 190 188 184 182 184 186
187 238 224 153 149 153 155 165 181 182 195 221 229 241 200 213 208 219 207 192 231 355 282 14 267 230 228 191 215 174 163 199 192 195 201 199 194 221 196 189 193 176 175 181 215 205 203 169 218 131 187 207 221 170 239 226 195 190 186 199 187 177 183 194 230 112 235 201 247 240 256 283 97 37 40 52 41 147 172 176 177 184 183 186 190 191 188 187
150 225 206 154 143 148 160 185 193 182 196 204 207 201 206 177 273 207 197 170 223 217 64 274 216 191 9 233 264 164 161 187 200 202 207 220 196 233 54 355 204 154 159 184 199 189 216 183 204 180 206 202 238 8 334 322 325 232 213 212 193 207 189 201 218 182 112 244 29 290 327 256 78 23 58 57 57 53 89 158 172 183 185 189 191 190 188 191
172 219 58 156 155 153 172 195 183 191 204 225 49 333 235 245 229 185 196 190 206 204 202 212 214 217 238 201 192 210 172 213 188 205 208 218 226 69 40 276 186 169 173 180 142 225 64 192 182 175 104 91 117 143 58 346 277 271 265 298 194 205 198 211 237 126 195 165 182 217 238 269 67 34 30 73 72 60 44 125 162 165 182 185 183 182 185 179
198 148 129 289 170 160 174 195 196 198 215 193 187 234 181 229 214 204 211 181 192 178 209 199 206 219 254 124 151 194 177 238 217 220 266 169 221 83 1 264 225 191 185 197 188 164 164 203 196 173 183 177 207 184 223 173 209 235 211 205 223 212 149 87 91 88 257 209 177 202 246 174 165 96 46 77 99 132 134 160 171 154 157 171 180 177 179 175
137 58 15 163 203 178 195 184 188 196 206 208 193 212 204 217 223 220 201 208 196 209 175 227 220 136 189 158 187 186 205 212 2 237 174 248 220 192 326 250 299 241 306 355 26 156 216 162 178 201 197 197 199 207 210 191 192 196 231 199 192 211 160 146 217 188 234 197 166 218 237 81 103 116 214 154 165 160 139 136 159 188 166 168 174 175 183 176
184 206 167 230 194 303 244 105 193 190 199 206 216 215 207 219 214 208 209 220 198 208 211 112 39 172 178 156 188 201 210 177 196 217 184 207 169 52 4 338 325 224 282 343 317 190 198 345 215 216 214 227 246 37 74 115 135 197 186 185 200 203 200 199 285 212 218 131 195 223 221 169 192 197 211 208 208 198 169 171 174 172 178 174 175 180 179 178
332 219 155 190 58 241 233 184 193 183 207 187 215 176 212 215 216 203 189 220 203 206 206 203 180 178 201 196 205 214 207 204 200 187 211 182 69 230 6 18 337 356 345 201 3 92 41 215 223 228 197 110 48 300 169 153 176 186 164 196 187 187 182 195 204 219 111 79 251 198 171 234 211 183 203 198 200 211 209 175 173 181 189 185 179 177 176 162
202 271 182 286 219 188 209 237 209 213 210 185 211 189 212 209 207 211 186 223 183 196 199 248 215 215 202 202 200 211 177 211 189 215 173 180 119 153 45 342 213 328 336 227 330 192 190 220 217 209 227 103 32 3 329 175 177 181 184 180 192 193 186 199 217 221 162 209 239 130 182 215 226 209 196 198 179 195 202 178 186 185 169 169 170 177 183 178
332 20 3 346 201 299 210 106 190 217 232 206 219 214 212 207 211 206 190 185 191 195 197 211 216 216 215 213 206 215 174 178 223 217 188 186 175 135 156 14 274 131 157 92 40 294 116 248 218 201 228 202 166 146 294 227 13 295 212 206 202 193 198 200 210 212 213 232 237 238 199 228 225 220 187 205 174 152 138 137 135 148 166 166 171 181 192 192
200 174 205 45 3 53 31 132 140 158 224 219 236 209 214 211 215 202 195 179 197 215 198 218 227 211 212 214 211 215 203 208 197 178 199 165 178 186 197 183 140 42 233 180 161 251 174 232 154 174 209 222 150 111 100 121 215 246 254 241 226 216 198 198 211 217 222 241 246 245 263 260 228 181 152 70 95 88 105 157 180 171 160 167 176 188 191 192
50 37 313 143 191 194 83 154 186 197 225 190 230 267 258 229 223 205 203 196 209 203 192 212 221 198 202 209 214 224 216 196 198 199 174 169 193 189 162 207 147 164 163 151 148 186 150 204 45 163 199 192 26 137 95 68 31 264 264 248 229 210 189 197 210 203 199 225 230 228 244 249 129 139 111 140 140 167 183 188 183 174 169 171 188 196 195 193
71 161 119 271 219 150 168 102 36 121 225 214 199 208 210 242 250 209 227 177 88 332 236 223 224 177 201 192 214 215 146 130 130 113 166 187 39 117 115 156 159 165 179 169 145 157 175 157 161 179 176 199 16 174 130 95 40 285 245 234 215 216 206 202 209 214 217 218 222 224 231 217 127 146 162 180 184 198 200 192 181 168 181 187 193 195 194 191